Location: Britannia Beach
(45.3521°N, 62.9901°W)
Time: 21:20:51
(UTC+00:00)

ISS - Visible Passes

Search period start: 01 August 2021 00:00
Search period end: 11 August 2021 00:00
Orbit: 419 x 421 km, 51.6° (Epoch: 01 August)

Date Brightness Start Highest point End Pass type
(mag) Time Alt. Az. Time Alt. Az. Time Alt. Az.
01 Aug -3.6 00:16:53 10° WNW 00:20:16 70° SSW 00:23:37 10° SE visible
01 Aug -1.1 01:55:38 10° WSW 01:56:31 11° SW 01:56:38 11° SW visible
02 Aug -1.6 01:07:07 10° W 01:09:26 17° SW 01:11:09 13° S visible
03 Aug -2.2 00:19:23 10° W 00:22:17 27° SW 00:25:13 10° SSE visible
05 Aug -0.9 00:23:23 10° WSW 00:24:09 11° SW 00:24:55 10° SW visible
